WN8IZV Weather Reports


Display with metric or nautical units.
time (UTC)temp
F
wind
direction
speed
MPH
gust
MPH
rain 1hr
in
rain 24hr
in
rain mn
in
humidity
%
barometer
mb
20260508041502 50 162 0.0 5.0 0.00 0.00 0.00 64 1012.1
20260508040111 50 214 0.0 2.0 0.00 0.00 0.00 64 1012.0
20260508034600 50 194 0.0 1.0 0.00 0.00 0.00 64 1012.1
20260508033053 50 219 0.0 1.0 0.00 0.00 0.00 64 1012.3
20260508031551 50 217 0.0 1.0 0.00 0.00 0.00 64 1012.5
20260508030049 50 262 0.0 0.0 0.00 0.00 0.00 64 1012.3
20260508024556 50 262 0.0 1.0 0.00 0.00 0.00 64 1012.3
20260508023045 51 274 0.0 2.0 0.00 0.00 0.00 64 1012.3
20260508021544 51 274 0.0 2.0 0.00 0.00 0.00 63 1012.2
20260508020047 51 255 0.0 3.0 0.00 0.00 0.00 63 1012.2
20260508014542 51 268 0.0 3.0 0.00 0.00 0.00 63 1012.2
20260508013040 51 278 0.0 2.0 0.00 0.00 0.00 63 1012.1
20260508011546 52 280 2.0 6.0 0.00 0.00 0.00 63 1012.0
20260508010035 52 346 0.0 3.0 0.00 0.00 0.00 63 1011.6
20260508004534 52 335 0.0 6.0 0.00 0.00 0.00 63 1011.4
20260508003131 53 283 0.0 4.0 0.00 0.00 0.00 63 1011.4
20260508001528 53 259 1.0 5.0 0.00 0.00 0.00 63 1011.3
20260508000030 53 285 1.0 5.0 0.00 0.00 0.00 64 1011.4
20260507234525 54 282 2.0 6.0 0.00 0.00 0.00 64 1011.2
20260507233037 56 287 2.0 6.0 0.00 0.00 0.00 64 1011.3
20260507231519 55 266 2.0 6.0 0.00 0.00 0.00 64 1011.3
20260507230016 55 327 2.0 8.0 0.00 0.00 0.00 64 1011.3
20260507224515 55 256 2.0 8.0 0.00 0.00 0.00 64 1011.4
20260507223012 55 297 3.0 7.0 0.00 0.00 0.00 64 1011.6
20260507221510 55 239 2.0 10.0 0.00 0.00 0.00 64 1011.6
20260507220008 55 252 1.0 11.0 0.00 0.00 0.00 64 1011.4
20260507214505 56 16 4.0 9.0 0.00 0.00 0.00 65 1011.4
20260507213005 56 334 3.0 9.0 0.00 0.00 0.00 65 1011.2
20260507211600 57 272 2.0 10.0 0.00 0.00 0.00 65 1011.4
20260507210104 56 316 1.0 9.0 0.00 0.00 0.00 65 1011.4
20260507204557 56 290 4.0 11.0 0.00 0.00 0.00 65 1011.6
20260507203053 55 342 3.0 8.0 0.00 0.00 0.00 65 1011.5
20260507201550 56 356 3.0 10.0 0.00 0.00 0.00 65 1011.6
20260507200047 56 300 3.0 10.0 0.00 0.00 0.00 66 1011.5
20260507194613 55 312 4.0 10.0 0.00 0.00 0.00 66 1011.7
20260507193042 56 248 2.0 7.0 0.00 0.00 0.00 66 1011.5
20260507191537 56 253 1.0 8.0 0.00 0.00 0.00 66 1011.6
20260507190035 56 317 1.0 7.0 0.00 0.00 0.00 66 1011.7
20260507184633 57 297 4.0 13.0 0.00 0.00 0.00 67 1011.7
20260507183037 56 234 3.0 11.0 0.00 0.00 0.00 67 1011.8
20260507181525 55 305 3.0 11.0 0.00 0.00 0.00 67 1011.8
20260507180030 57 282 2.0 8.0 0.00 0.00 0.00 67 1011.9
20260507174521 56 312 2.0 8.0 0.00 0.00 0.00 67 1011.9
20260507173029 55 255 3.0 8.0 0.00 0.00 0.00 67 1012.1
20260507171531 56 261 2.0 8.0 0.00 0.00 0.00 67 1012.3
20260507170014 55 322 3.0 11.0 0.00 0.00 0.00 67 1012.2
20260507164613 56 256 1.0 6.0 0.00 0.00 0.00 68 1012.3
20260507163011 55 352 1.0 8.0 0.00 0.00 0.00 68 1012.4
20260507161506 56 165 1.0 8.0 0.00 0.00 0.00 68 1012.4
20260507160007 56 284 2.0 7.0 0.00 0.00 0.00 69 1012.6
20260507154502 57 1 0.0 6.0 0.00 0.00 0.00 69 1012.5
20260507153101 57 212 3.0 6.0 0.00 0.00 0.00 69 1012.5
20260507153000 57 217 2.0 6.0 0.00 0.00 0.00 69 1012.5
20260507151601 57 277 1.0 5.0 0.00 0.00 0.00 70 1012.6
20260507150059 55 156 2.0 8.0 0.00 0.00 0.00 70 1012.6
20260507144553 55 192 1.0 6.0 0.00 0.00 0.00 70 1012.6
20260507143047 55 318 2.0 4.0 0.00 0.00 0.00 71 1012.8
20260507141552 54 263 3.0 6.0 0.00 0.00 0.00 71 1012.9
20260507140039 53 301 1.0 3.0 0.00 0.00 0.00 71 1013.2
20260507134535 52 358 0.0 3.0 0.00 0.00 0.00 71 1013.1
20260507133031 52 271 0.0 2.0 0.00 0.00 0.00 72 1013.2
20260507131533 50 211 1.0 2.0 0.00 0.00 0.00 72 1013.2
20260507130026 49 334 0.0 2.0 0.00 0.00 0.00 72 1013.2
20260507124520 48 307 0.0 2.0 0.00 0.00 0.00 72 1013.4
20260507123016 47 270 0.0 2.0 0.00 0.00 0.00 72 1013.3
20260507121514 46 290 0.0 1.0 0.00 0.00 0.00 72 1013.3
20260507120034 44 6 0.0 0.0 0.00 0.00 0.00 71 1013.3
20260507114509 41 6 0.0 1.0 0.00 0.00 0.00 70 1013.3
20260507113031 39 10 0.0 0.0 0.00 0.00 0.00 70 1013.2
20260507111507 36 10 0.0 0.0 0.00 0.00 0.00 69 1013.1
20260507110009 36 10 0.0 0.0 0.00 0.00 0.00 69 1012.9
20260507104602 36 10 0.0 0.0 0.00 0.00 0.00 69 1013.0
20260507103055 37 10 0.0 0.0 0.00 0.00 0.00 69 1012.8
20260507101558 39 10 0.0 2.0 0.00 0.00 0.00 69 1012.8
20260507100048 39 10 0.0 0.0 0.00 0.00 0.00 68 1012.7
20260507094553 39 11 0.0 1.0 0.00 0.00 0.00 68 1012.7
20260507093042 39 11 0.0 0.0 0.00 0.00 0.00 68 1012.7
20260507091537 41 11 0.0 0.0 0.00 0.00 0.00 68 1012.7
20260507090032 42 11 0.0 1.0 0.00 0.00 0.00 69 1012.7
20260507084532 42 7 0.0 2.0 0.00 0.00 0.00 69 1013.0
20260507083129 42 359 0.0 0.0 0.00 0.00 0.00 69 1012.9
20260507081531 42 356 0.0 2.0 0.00 0.00 0.00 69 1012.8
20260507080021 43 18 0.0 3.0 0.00 0.00 0.00 69 1012.8
20260507074528 42 273 0.0 0.0 0.00 0.00 0.00 69 1012.8
20260507073017 42 273 0.0 0.0 0.00 0.00 0.00 69 1012.7
20260507071517 43 273 0.0 0.0 0.00 0.00 0.00 69 1012.7
20260507070014 44 273 0.0 1.0 0.00 0.00 0.00 69 1012.7
20260507064510 43 269 0.0 1.0 0.00 0.00 0.00 69 1012.7
20260507063006 43 289 0.0 1.0 0.00 0.00 0.00 69 1012.8
20260507061503 44 164 0.0 0.0 0.00 0.00 0.00 69 1012.8
20260507060059 45 164 0.0 0.0 0.00 0.00 0.00 69 1012.8
20260507054556 45 164 0.0 0.0 0.00 0.00 0.00 69 1012.9
20260507053053 46 164 0.0 0.0 0.00 0.00 0.00 69 1013.0
20260507051549 46 163 0.0 0.0 0.00 0.00 0.00 69 1013.0
20260507050045 47 163 0.0 0.0 0.00 0.00 0.00 69 1013.1
20260507044543 47 164 0.0 0.0 0.00 0.00 0.00 69 1013.1
20260507043043 47 163 0.0 2.0 0.00 0.00 0.00 68 1013.1